DW4657 Weather Reports


Display with metric or nautical units.
time (UTC)temp
F
wind
direction
speed
MPH
gust
MPH
rain 1hr
in
rain 24hr
in
rain mn
in
humidity
%
barometer
mb
20180821081032 65 79 1.0 4.0 0.00 0.00 0.00 92 1020.7
20180821080032 65 96 0.0 3.0 0.00 0.00 0.00 92 1020.8
20180821075032 65 73 1.0 1.0 0.00 0.00 0.00 93 1020.9
20180821074109 65 37 0.0 2.0 0.00 0.00 0.00 93 1020.9
20180821073032 65 83 0.0 3.0 0.00 0.00 0.00 93 1021.1
20180821072031 65 13 0.0 4.0 0.00 0.00 0.00 94 1021.0
20180821071031 65 80 0.0 1.0 0.00 0.00 0.00 94 1021.2
20180821070031 64 83 0.0 1.0 0.00 0.00 0.00 95 1021.2
20180821065030 64 83 0.0 1.0 0.00 0.00 0.00 95 1021.2
20180821064030 64 76 0.0 0.0 0.00 0.00 0.00 96 1021.2
20180821063030 64 89 0.0 0.0 0.00 0.00 0.00 97 1021.2
20180821062030 63 81 0.0 0.0 0.00 0.00 0.00 97 1021.2
20180821061030 63 82 0.0 1.0 0.00 0.00 0.00 97 1021.3
20180821060038 63 75 0.0 1.0 0.00 0.00 0.00 97 1021.2
20180821055029 63 78 0.0 0.0 0.00 0.00 0.00 97 1021.3
20180821054029 63 82 0.0 0.0 0.00 0.00 0.00 97 1021.4
20180821053029 63 87 0.0 0.0 0.00 0.00 0.00 97 1021.5
20180821052028 63 87 0.0 0.0 0.00 0.00 0.00 97 1021.5
20180821051028 63 87 0.0 0.0 0.00 0.00 0.00 96 1021.5
20180821050028 63 87 0.0 0.0 0.00 0.00 0.00 97 1021.6
20180821045027 63 87 0.0 0.0 0.00 0.00 0.00 97 1021.5
20180821044028 63 87 0.0 0.0 0.00 0.00 0.00 96 1021.6
20180821043028 63 87 0.0 1.0 0.00 0.00 0.00 96 1021.7
20180821042028 63 99 0.0 1.0 0.00 0.00 0.00 96 1021.9
20180821041026 63 99 0.0 0.0 0.00 0.00 0.00 95 1021.9
20180821040056 63 99 0.0 1.0 0.00 0.00 0.00 95 1022.0
20180821035026 63 88 0.0 0.0 0.00 0.00 0.00 95 1021.9
20180821034026 63 88 0.0 1.0 0.00 0.00 0.00 95 1021.9
20180821033025 63 85 0.0 1.0 0.00 0.00 0.00 95 1021.8
20180821032026 63 85 0.0 2.0 0.00 0.00 0.00 94 1022.0
20180821031025 64 71 0.0 1.0 0.00 0.00 0.00 94 1022.0
20180821030055 64 79 0.0 2.0 0.00 0.00 0.00 94 1022.1
20180821025055 64 85 1.0 3.0 0.00 0.00 0.00 94 1022.2
20180821024055 64 68 0.0 3.0 0.00 0.00 0.00 94 1022.2
20180821023054 64 86 0.0 3.0 0.00 0.00 0.00 94 1022.2
20180821022054 63 80 0.0 1.0 0.00 0.00 0.00 95 1022.2
20180821021054 63 79 0.0 2.0 0.00 0.00 0.00 95 1022.2
20180821020054 63 78 0.0 1.0 0.00 0.00 0.00 94 1022.1
20180821015054 63 76 0.0 2.0 0.00 0.00 0.00 94 1022.1
20180821014053 63 68 0.0 2.0 0.00 0.00 0.00 94 1022.0
20180821013053 64 77 0.0 3.0 0.00 0.00 0.00 93 1021.9
20180821012053 64 77 0.0 2.0 0.00 0.00 0.00 93 1022.0
20180821011052 64 80 0.0 1.0 0.00 0.00 0.00 93 1022.0
20180821010052 64 80 0.0 2.0 0.00 0.00 0.00 92 1021.9
20180821005052 64 85 0.0 3.0 0.00 0.00 0.00 91 1022.0
20180821004052 64 42 0.0 3.0 0.00 0.00 0.00 90 1021.9
20180821003052 65 76 3.0 3.0 0.00 0.00 0.00 90 1021.9
20180821002051 65 69 0.0 2.0 0.00 0.00 0.00 89 1021.7
20180821001051 65 82 0.0 2.0 0.00 0.00 0.00 88 1021.6
20180821000051 66 86 2.0 2.0 0.00 0.00 0.00 88 1021.5
20180820235050 66 61 1.0 4.0 0.00 0.00 0.00 87 1021.5
20180820234050 66 115 1.0 3.0 0.00 0.00 0.00 86 1021.3
20180820233050 67 68 0.0 4.0 0.00 0.00 0.00 85 1021.3
20180820232050 67 60 0.0 6.0 0.00 0.00 0.00 84 1021.3
20180820231049 67 55 1.0 5.0 0.00 0.00 0.00 83 1021.3
20180820230049 68 73 4.0 7.0 0.00 0.00 0.00 82 1021.4
20180820225049 68 43 2.0 7.0 0.00 0.00 0.00 80 1021.3
20180820224049 69 355 1.0 5.0 0.00 0.00 0.00 79 1021.3
20180820223049 69 58 2.0 7.0 0.00 0.00 0.00 78 1021.3
20180820222048 69 87 0.0 8.0 0.00 0.00 0.00 77 1021.4
20180820221048 70 38 2.0 5.0 0.00 0.00 0.00 76 1021.3
20180820220048 70 45 3.0 8.0 0.00 0.00 0.00 75 1021.3
20180820215048 71 34 1.0 7.0 0.00 0.00 0.00 74 1021.4
20180820214048 71 128 1.0 7.0 0.00 0.00 0.00 72 1021.5
20180820213047 72 109 3.0 8.0 0.00 0.00 0.00 73 1021.5
20180820212047 72 58 0.0 8.0 0.00 0.00 0.00 70 1021.5
20180820211047 73 36 0.0 9.0 0.00 0.00 0.00 70 1021.5
20180820210046 74 65 2.0 6.0 0.00 0.00 0.00 69 1021.6
20180820205046 73 35 1.0 8.0 0.00 0.00 0.00 70 1021.5
20180820204046 74 19 1.0 8.0 0.00 0.00 0.00 70 1021.4
20180820203046 75 118 2.0 7.0 0.00 0.00 0.00 68 1021.3
20180820202045 74 89 3.0 8.0 0.00 0.00 0.00 70 1021.2
20180820201046 73 56 3.0 7.0 0.00 0.00 0.00 70 1021.4
20180820200045 74 93 6.0 11.0 0.00 0.00 0.00 67 1021.5
20180820195045 75 141 0.0 11.0 0.00 0.00 0.00 71 1021.5
20180820194044 75 109 0.0 9.0 0.00 0.00 0.00 68 1021.4
20180820193044 77 84 6.0 8.0 0.00 0.00 0.00 66 1021.5
20180820192045 75 27 2.0 6.0 0.00 0.00 0.00 69 1021.5
20180820191044 75 8 2.0 11.0 0.00 0.00 0.00 68 1021.4
20180820190043 75 76 9.0 11.0 0.00 0.00 0.00 66 1021.3
20180820185044 76 47 1.0 8.0 0.00 0.00 0.00 65 1021.4
20180820184043 75 51 6.0 13.0 0.00 0.00 0.00 63 1021.4
20180820183043 76 64 2.0 9.0 0.00 0.00 0.00 63 1021.3
20180820182043 76 64 3.0 6.0 0.00 0.00 0.00 62 1021.4
20180820181043 76 71 5.0 6.0 0.00 0.00 0.00 65 1021.4
20180820180042 76 52 2.0 11.0 0.00 0.00 0.00 63 1021.4
20180820175042 75 85 2.0 11.0 0.00 0.00 0.00 63 1021.2
20180820174042 76 71 1.0 8.0 0.00 0.00 0.00 62 1021.2
20180820173042 75 133 1.0 6.0 0.00 0.00 0.00 67 1021.2
20180820172041 75 31 1.0 13.0 0.00 0.00 0.00 67 1021.3
20180820171041 75 68 5.0 12.0 0.00 0.00 0.00 67 1021.4
20180820170041 75 37 4.0 10.0 0.00 0.00 0.00 65 1021.5
20180820165041 75 76 5.0 8.0 0.00 0.00 0.00 67 1021.5
20180820164040 75 50 3.0 9.0 0.00 0.00 0.00 69 1021.6
20180820163040 75 335 3.0 10.0 0.00 0.00 0.00 68 1021.5
20180820162040 74 11 3.0 9.0 0.00 0.00 0.00 71 1021.4
20180820161039 73 75 5.0 10.0 0.00 0.00 0.00 71 1021.6
20180820160039 72 47 3.0 13.0 0.00 0.00 0.00 75 1021.6
20180820155039 72 60 3.0 12.0 0.00 0.00 0.00 78 1021.6
20180820154039 71 59 3.0 12.0 0.00 0.00 0.00 78 1021.6
20180820153039 71 41 3.0 11.0 0.00 0.00 0.00 78 1021.8
20180820152039 71 341 2.0 14.0 0.00 0.00 0.00 80 1021.8
20180820151038 71 83 5.0 10.0 0.00 0.00 0.00 79 1021.9
20180820150038 71 52 2.0 11.0 0.00 0.00 0.00 79 1022.2
20180820145038 71 69 4.0 11.0 0.00 0.00 0.00 79 1022.1
20180820144037 71 83 2.0 7.0 0.00 0.00 0.00 80 1022.2
20180820143037 71 68 3.0 7.0 0.00 0.00 0.00 81 1022.2
20180820142037 70 73 2.0 12.0 0.00 0.00 0.00 82 1022.1
20180820141037 69 76 6.0 10.0 0.00 0.00 0.00 82 1022.2
20180820140037 70 122 2.0 8.0 0.00 0.00 0.00 83 1022.1
20180820135037 69 104 3.0 9.0 0.00 0.00 0.00 82 1021.9
20180820134036 69 70 8.0 9.0 0.00 0.00 0.00 82 1022.0
20180820133036 69 83 3.0 11.0 0.00 0.00 0.00 83 1022.1
20180820132036 69 93 2.0 11.0 0.00 0.00 0.00 84 1021.8
20180820131036 69 4 2.0 16.0 0.00 0.00 0.00 83 1021.7
20180820130036 69 49 3.0 9.0 0.00 0.00 0.00 85 1021.5
20180820125035 68 64 2.0 12.0 0.00 0.00 0.00 86 1021.5
20180820124035 68 83 0.0 10.0 0.00 0.00 0.00 87 1021.5
20180820123035 67 56 3.0 9.0 0.00 0.00 0.00 88 1021.5
20180820122035 67 78 1.0 9.0 0.00 0.00 0.00 88 1021.4
20180820121034 67 344 2.0 7.0 0.00 0.00 0.00 88 1021.3
20180820120034 67 69 3.0 6.0 0.00 0.00 0.00 88 1021.5
20180820115034 67 89 5.0 10.0 0.00 0.00 0.00 88 1021.3
20180820114033 67 40 2.0 9.0 0.00 0.00 0.00 88 1021.1
20180820113034 67 47 1.0 10.0 0.00 0.00 0.00 88 1021.1
20180820112033 67 52 1.0 13.0 0.00 0.00 0.00 88 1021.1
20180820111033 67 46 3.0 6.0 0.00 0.00 0.00 88 1020.9
20180820110033 67 53 2.0 7.0 0.00 0.00 0.00 88 1020.9
20180820105032 67 65 2.0 7.0 0.00 0.00 0.00 88 1020.8
20180820104032 67 65 2.0 9.0 0.00 0.00 0.00 88 1020.8
20180820103032 67 29 0.0 4.0 0.00 0.00 0.00 88 1020.6
20180820102032 67 85 1.0 10.0 0.00 0.00 0.00 88 1020.3
20180820101031 67 59 3.0 8.0 0.00 0.00 0.00 88 1020.2
20180820100031 67 62 2.0 3.0 0.00 0.00 0.00 88 1020.0
20180820095031 67 23 2.0 7.0 0.00 0.00 0.00 88 1020.0
20180820094031 67 51 1.0 9.0 0.00 0.00 0.00 88 1020.0
20180820093031 67 47 0.0 7.0 0.00 0.00 0.00 89 1019.8
20180820092031 67 206 1.0 7.0 0.00 0.00 0.00 89 1019.7
20180820091030 67 12 1.0 6.0 0.00 0.00 0.00 89 1019.5
20180820090030 67 344 1.0 8.0 0.00 0.00 0.00 89 1019.5
20180820085029 67 50 2.0 8.0 0.00 0.00 0.00 90 1019.5
20180820084029 67 72 3.0 5.0 0.00 0.00 0.00 90 1019.5
20180820083029 67 68 3.0 6.0 0.00 0.00 0.00 90 1019.5
20180820082029 67 61 3.0 8.0 0.00 0.00 0.00 90 1019.6